Preview of NWS' New Version of Forecast
This preview is not operational and should not be used for support decisions.

Regional Weather Roundup (RWR)

Issued by National Weather Service (NWS)

                            
000
ASUS45 KBOU 191910
RWRCO 

WEATHER ROUNDUP FOR COLORADO
NATIONAL WEATHER SERVICE DENVER/BOULDER CO
1200 PM MST TUE FEB 19 2019

NOTE: "FAIR" INDICATES FEW OR NO CLOUDS BELOW 12000 FEET WITH NO
SIGNIFICANT WEATHER AND/OR OBSTRUCTIONS TO VISIBILITY.

COZ001>005-013-030-031-192000-
...NORTHWEST COLORADO...
  
CITY           SKY/WX    TMP DP  RH WIND       PRES   REMARKS
CRAIG          CLOUDY    10   5  80 SW3       29.86F                  
HAYDEN         FLURRIES   7   2  80 SW3       29.84F                  
MEEKER         CLOUDY    16   6  65 SW7       29.82F WCI   6          
RANGELY        MOCLDY    20   6  53 CALM      29.90F                  
RABBIT EARS PA CLOUDY     3   1  92 W12G17    29.57F FOG     WCI -13  
STEAMBOAT SPGS CLOUDY    10   3  71 W3        29.79F                  
WALDEN         CLOUDY    10   3  72 CALM      29.68F                  
$$

COZ006>008-011-192000-
...WEST CENTRAL VALLEYS...
  
CITY           SKY/WX    TMP DP  RH WIND       PRES   REMARKS
GRAND JUNCTION CLOUDY    26  20  77 N7        29.86F WCI  18          
MONTROSE       CLOUDY    23  15  71 NW9       29.83S WCI  13          
EAGLE          CLOUDY    29  13  51 CALM      29.74F                  
RIFLE          FAIR      24  10  55 W6        29.81F WCI  17          
DELTA          CLOUDY    30  21  69 CALM      29.81F                  
NUCLA          PTSUNNY   27  14  59 NW5       29.83F WCI  21          
$$

COZ017>023-064>068-192000-
...SOUTHWEST COLORADO...
  
CITY           SKY/WX    TMP DP  RH WIND       PRES   REMARKS
DURANGO        CLOUDY    23  20  88 SW9       29.73F FOG     WCI  13  
CORTEZ         CLOUDY    28  15  58 NW8       29.78F WCI  20          
PAGOSA SPRINGS LGT SNOW  22  18  85 S9        29.70F VSB 1   WCI  11  
TELLURIDE      CLOUDY    16  10  79 W12       29.67F WCI   3          
WOLF CREEK PAS CLOUDY     3   1  92 S16G22    29.60F WCI -16          
$$

COZ009-010-012-014-032>034-037-058>063-192000-
...CENTRAL COLORADO...
  
CITY           SKY/WX    TMP DP  RH WIND       PRES   REMARKS
ASPEN          LGT SNOW  17   9  70 NW7       29.68F WCI   8          
BUENA VISTA    FAIR      13   4  69 CALM      29.65F                  
COPPER MTN     LGT SNOW  12   5  73 W8        29.52F VSB 3/4 WCI   1  
BERTHOUD PASS  CLOUDY     1  -9  60 NW8       29.51F WCI -12          
COTTONWOOD PAS CLOUDY    16  10  79 CALM      29.59F                  
GUNNISON       CLOUDY    19  13  77 W6        29.67F HAZE    WCI  11  
GRANBY         CLOUDY    17   8  68 CALM      29.65F                  
KREMMLING      CLOUDY    21  12  68 CALM      29.70F                  
LEADVILLE      PTSUNNY   10   6  84 S15       29.56F WCI  -7          
MONARCH PASS   CLOUDY     9   3  78 MISG      29.63F                  
SALIDA         PTSUNNY   17   8  65 CALM      29.75F                  
SUNLIGHT       LGT SNOW   7   3  85 SW6       29.64F WCI  -3          
WILKERSON PASS FAIR      12   9  85 SW6       29.57F WCI   3          
$$

COZ069>075-192000-
...SAN LUIS VALLEY/SANGRE DE CRISTO MOUNTAINS...
  
CITY           SKY/WX    TMP DP  RH WIND       PRES   REMARKS
ALAMOSA        PTSUNNY   23  13  65 S20       29.66F WCI   8          
DEL NORTE      PTSUNNY   20  14  76 E6        29.65F WCI  12          
LA VETA PASS   NOT AVBL                                               
SAGUACHE       LGT SNOW  21  14  73 CALM      29.67F                  
$$

COZ035-036-038>040-192000-
...NORTHERN COLORADO FRONT RANGE...
  
CITY           SKY/WX    TMP DP  RH WIND       PRES   REMARKS
DENVER INTL AP LGT SNOW  18  10  71 NW8       29.79F WCI   8          
AURORA         LGT SNOW  18  14  86 N9        29.78F FOG     WCI   6  
FRONT RANGE AP LGT SNOW  19  14  79 NW6       29.80F VSB 1   WCI  11  
ERIE MUNI ARPT PTSUNNY   21  11  65 N7        29.88F WCI  12          
BOULDER MUN AP CLOUDY    19   9  63 NW6       29.80F WCI  11          
CENTENNIAL     LGT SNOW  16  11  80 VRB5      29.77F FOG     WCI   9  
BROOMFIELD     LGT SNOW  19  12  73 N6        29.80F WCI  11          
FORT COLLINS   LGT SNOW  19  14  81 NE6       29.83F WCI  11          
LONGMONT       CLOUDY    24  11  60 N7        29.84F HAZE    WCI  15  
$$

COZ041-046-047-076>085-087-088-192000-
...PIKES PEAK/PALMER DIVIDE AND SOUTHERN FOOTHILLS...
  
CITY           SKY/WX    TMP DP  RH WIND       PRES   REMARKS
COLO. SPRINGS  LGT SNOW  13   8  81 E7        29.76F FOG     WCI   3  
A. F. ACADEMY  FLURRIES  12   4  69 CALM      29.72F                  
SCHRIEVER AFB  NOT AVBL                                               
CHEYENNE MTN   LGT SNOW   9   7  92 SE3       29.65F                  
ELLICOTT       NOT AVBL                                               
FALCON         LGT SNOW  15   6  67 SE5       29.73F WCI   7          
FORT CARSON    FLURRIES  14   7  73 SE5       29.76F WCI   6          
LIMON          LGT SNOW  13   9  84 SE16      29.83F FOG     WCI  -3  
MONUMENT HILL  FAIR      14   5  67 S5        29.71F WCI   6          
CANON CITY     FLURRIES  21  14  73 E3        29.79F                  
WALSENBURG     NOT AVBL                                               
TRINIDAD       FAIR      26  16  65 NE9       29.74F WCI  17          
$$

COZ042>045-048>051-090-091-192000-
...NORTHEAST COLORADO...
  
CITY           SKY/WX    TMP DP  RH WIND       PRES   REMARKS
GREELEY ARPT   NOT AVBL                                               
AKRON          LGT SNOW  16  11  80 SE21      29.89F WCI  -1          
BURLINGTON     LGT SNOW  17  12  80 SE20G26   29.93F WCI   1          
WRAY           LGT SNOW  19  14  79 SE16      30.00F WCI   5          
YUMA           LGT SNOW  16  10  79 SE16G23   29.95F WCI   0          
STERLING       LGT SNOW  19  14  79 SE14      29.94F WCI   6          
HOLYOKE        CLOUDY    19  14  79 SE17      30.01F WCI   4          
FORT MORGAN    FLURRIES  21  11  65 SE16      29.89F WCI   7          
$$

COZ086-089-092>099-192000-
...SOUTHEAST COLORADO...
  
CITY           SKY/WX    TMP DP  RH WIND       PRES   REMARKS
PUEBLO         FAIR      20  13  74 S5        29.84F WCI  13          
LA JUNTA       FAIR      25  17  72 SE13      29.87F WCI  14          
LAMAR          CLOUDY    22  15  75 SE13      29.93F WCI  10          
SPRINGFIELD      N/A     19  16  88 S13       29.91F WCI   6          
$$